Location: Unspecified
(0.0000°N, 0.0000°E)
Time: 03:33:46
(UTC+00:00)

N. Korean satellite - Pass Details

Date: 24 January 2021
Orbit: 451 x 502 km, 97.2° (Epoch: 07 March)

Event Time Altitude Azimuth Distance (km) Brightness Sun altitude
Rises 05:21:36 0° 358° (N) 2,447 9.9 -11.9°
Reaches altitude 10° 05:23:42 10° 350° (N) 1,575 8.9 -11.4°
Maximum altitude 05:26:51 38° 281° (W) 708 6.9 -10.7°
Drops below altitude 10° 05:30:01 10° 211° (SSW) 1,582 9.0 -9.9°
Sets 05:32:09 0° 203° (SSW) 2,460 10.1 -9.4°
